#timestamp,LO_Frequency,Hit,StdDev 
1536904815.5,286046999.3,N
1536904835.4,286046996.8,Y
1536904855.2,286046997.9,P
1536904875.0,286046994.9,P
1536904876.0,286046994.9,N
1536904895.8,286046998.0,N
1536904915.6,286046997.5,N
1536904935.5,286046995.1,N
1536904955.3,286046996.2,N
1536904975.1,286046995.5,N
1536904995.9,286046997.0,N
1536905015.7,286046999.5,N
1536905035.5,286046996.5,N
1536905055.4,286046998.8,N
1536905075.2,286046996.6,N
1536905095.1,286046999.1,N
1536905096.0,286046999.1,N
1536905115.8,286046996.5,N
1536905135.6,286046996.7,N
1536905155.5,286046995.5,N
1536905175.3,286046993.7,Y
1536905195.1,286046994.9,P
1536905215.9,286046997.5,N
1536905235.7,286046997.1,N
1536905255.6,286046999.6,N
1536905275.4,286046999.3,N
1536905295.2,286046999.6,N
1536905315.1,286046996.6,N
1536905316.0,286046996.6,N
1536905335.8,286046996.8,N
1536905355.6,286046996.9,N
1536905375.5,286046996.9,N
1536905395.3,286046995.1,Y
1536905415.2,286046997.1,P
1536905435.9,286046997.1,P
1536905455.7,286046997.4,P
1536905475.6,286046999.4,Y
1536905495.4,286046999.7,P
1536905515.2,286046999.8,N
1536905535.1,286046998.8,N
1536905536.0,286046998.8,N
1536905555.8,286046996.7,Y
1536905575.7,286046998.8,P
1536905595.5,286046998.9,P
1536905615.3,286046998.3,P
1536905635.2,286047000.5,N
1536905655.0,286047000.3,N
1536905655.9,286047000.3,N
1536905675.8,286047001.0,N
1536905695.6,286046998.1,N
1536905715.4,286047001.1,N
1536905735.3,286046998.3,N
1536905755.1,286046998.9,N
1536905775.8,286047002.5,N
1536905795.7,286046999.8,N
1536905815.5,286047002.4,N
1536905835.4,286047001.3,N
1536905855.2,286046999.9,N
1536905875.0,286047000.3,N
1536905875.9,286047000.3,N
1536905895.8,286047000.4,N
1536905915.6,286046999.8,N
1536905935.4,286047001.8,N
1536905955.3,286047001.8,N
1536905975.1,286047000.4,N
1536905995.9,286047001.7,N
1536906015.7,286047004.1,Y
1536906035.5,286047004.2,P
1536906055.4,286047005.6,N
1536906075.2,286047004.5,N
1536906095.0,286047004.8,N
1536906096.0,286047004.8,N
1536906115.8,286047005.3,Y
1536906135.6,286047000.3,P
1536906155.5,286047002.8,N
1536906175.3,286047000.0,N
1536906195.1,286047000.6,N
1536906215.9,286046998.2,N
1536906235.7,286046998.9,N
1536906255.6,286046998.7,N
1536906275.4,286046998.8,N
1536906295.2,286047000.5,N
1536906315.1,286047001.1,N
1536906316.0,286047001.1,N
1536906335.8,286046998.1,N
1536906355.7,286047001.2,N
1536906375.5,286047000.6,N
1536906395.3,286047000.5,N
1536906415.2,286047000.4,N
1536906435.0,286046999.8,N
1536906435.9,286046999.8,N
1536906455.8,286046999.7,N
1536906475.6,286047002.8,N
1536906495.4,286047002.0,N
1536906515.3,286047004.0,N
1536906535.1,286047004.4,N
1536906555.8,286047003.0,N
1536906575.7,286047003.8,N
1536906595.5,286047004.3,N
1536906615.4,286047003.8,N
1536906635.2,286047004.2,N
1536906655.0,286047000.1,N
1536906655.9,286047000.1,N
1536906675.8,286046998.1,N
1536906695.6,286047000.8,N
1536906715.4,286046996.9,N
1536906735.3,286046995.6,N
1536906755.1,286046993.8,N
1536906775.9,286046996.3,N
1536906795.7,286046994.0,N
1536906815.5,286046996.0,N
1536906835.4,286046993.8,N
1536906855.2,286046996.0,N
1536906875.0,286046996.1,N
1536906875.9,286046996.1,N
1536906895.8,286046997.3,N
1536906915.6,286046996.7,N
1536906935.4,286046999.1,N
1536906955.3,286046998.6,N
1536906975.1,286046999.3,N
1536906995.9,286046996.6,N
1536907015.7,286046999.7,N
1536907035.5,286047000.2,N
1536907055.4,286046999.8,N
1536907075.2,286047000.7,N
1536907095.0,286046998.8,N
1536907096.0,286046998.8,N
1536907115.8,286046999.5,N
1536907135.6,286046997.3,N
1536907155.5,286046996.7,N
1536907175.3,286046996.8,N
1536907195.1,286046999.5,N
1536907215.9,286046997.6,N
1536907235.7,286046997.0,N
1536907255.5,286046996.8,N
1536907275.4,286046997.7,N
1536907295.2,286046995.1,N
1536907315.1,286046997.6,N
1536907316.0,286046997.6,N
1536907335.8,286046995.1,N
1536907355.6,286046997.4,N
1536907375.5,286046995.3,N
1536907395.3,286046995.3,Y
1536907415.2,286046997.1,P
1536907435.9,286046997.0,P
1536907455.7,286046996.7,P
1536907475.6,286047001.2,Y
1536907495.4,286047001.6,P
1536907515.3,286047002.3,N
1536907535.1,286047001.4,N
1536907536.0,286047001.4,N
1536907555.8,286047001.4,N
1536907575.7,286047001.4,N
1536907595.5,286047002.8,N
1536907615.3,286047000.6,N
1536907635.2,286046999.7,N
1536907655.0,286047000.3,N
1536907655.9,286047000.3,N
1536907675.8,286047002.7,N
1536907695.6,286047000.7,N
1536907715.4,286047001.0,N
1536907735.3,286047001.2,N
1536907755.1,286047000.3,N
1536907775.8,286046998.6,N
1536907795.7,286046996.8,N
1536907815.5,286046995.5,N
1536907835.4,286046995.8,N
1536907855.2,286046995.7,N
1536907875.0,286046995.2,N
1536907875.9,286046995.2,N
1536907895.8,286046995.4,N
1536907915.6,286046997.7,N
1536907935.4,286046996.8,N
1536907955.3,286046997.1,N
1536907975.1,286046996.9,N
1536907995.9,286046999.6,N
1536908015.7,286046999.0,N
1536908035.5,286046999.1,N
1536908055.4,286046997.1,N
1536908075.2,286046995.6,N
1536908095.0,286046994.2,N
1536908095.9,286046994.2,N
1536908115.8,286046992.4,Y
1536908135.6,286046994.8,P
1536908155.5,286046993.4,P
1536908175.3,286046995.1,N
1536908195.1,286046995.0,N
1536908215.9,286046995.2,Y
1536908235.7,286047000.3,P
1536908255.5,286047001.3,N
1536908275.4,286047001.4,N
1536908295.2,286047003.8,N
1536908315.1,286047005.6,N
1536908316.0,286047005.6,N
1536908335.8,286047007.6,N
1536908355.6,286047007.0,N
1536908375.5,286047007.3,N
1536908395.3,286047006.4,N
